Weather History for Kalaeloa, HI

Change the Weather History Date:

Tuesday, December 17, 2013

  Actual Average (PHNL) Record (PHNL)
Temperature  
Mean Temperature 71 °F 75 °F  
Max Temperature 78 °F 81 °F 88 °F (1992)
Min Temperature 64 °F 68 °F 57 °F (1980)
Degree Days  
Heating Degree Days 0 0  
Month to date heating degree days 0  
Since 1 July heating degree days 0  
Cooling Degree Days 6 10  
Month to date cooling degree days 177  
Year to date cooling degree days 4503  
Growing Degree Days 21 (Base 50)    
Moisture  
Dew Point 63 °F    
Average Humidity 77    
Maximum Humidity 93    
Minimum Humidity 60    
Precipitation  
Precipitation 0.00 in 0.12 in 1.47 in (1971)
Month to date precipitation 1.63  
Year to date precipitation 15.49  
Snow  
Snow 0.00 in - - ()
Month to date snowfall  
Since 1 July snowfall  
Snow Depth -    
Sea Level Pressure  
Sea Level Pressure 30.04 in    
Wind  
Wind Speed 3 mph (SE)    
Max Wind Speed 12 mph    
Max Gust Speed -    
Visibility 10 miles    
Events      
T = Trace of Precipitation, MM = Missing Value Source: NWS Daily Summary

Daily Weather History Graph

Daily Weather History Graph

Search for Another Location

Airport:

Trip Planner

Search our weather history database for the weather conditions in past years. The results will help you decide how hot, cold, wet, or windy it might be!

Date:

Astronomy

Dec. 17, 2013 Rise Set
Actual Time 7:03 AM HST 5:53 PM HST
Civil Twilight 6:39 AM HST 6:18 PM HST
Nautical Twilight 6:11 AM HST 6:45 PM HST
Astronomical Twilight 5:44 AM HST 7:13 PM HST
Moon 6:35 PM HST 7:15 AM HST
Length of Visible Light 11h 38m
Length of Day
10h 50m
Full, 100% of the Moon is Illuminated
Dec 17
Full
Dec 25
Last Quarter
Jan 1
New
Jan 7
First Quarter
Jan 15
Full

Hourly Weather History & Observations

Time (HST) Temp. Dew Point Humidity Pressure Visibility Wind Dir Wind Speed Gust Speed Precip Events Conditions
12:53 AM 66.0 °F 60.1 °F 81% 30.02 in 10.0 mi Calm Calm - N/A   Clear
1:53 AM 66.0 °F 60.1 °F 81% 30.02 in 10.0 mi Variable 3.5 mph - N/A   Clear
2:53 AM 68.0 °F 62.1 °F 81% 30.01 in 10.0 mi Variable 3.5 mph - N/A   Clear
3:53 AM 68.0 °F 63.0 °F 84% 30.01 in 10.0 mi Variable 3.5 mph - N/A   Clear
4:53 AM 66.0 °F 63.0 °F 90% 30.02 in 10.0 mi Calm Calm - N/A   Clear
5:53 AM 66.0 °F 63.0 °F 90% 30.03 in 10.0 mi Calm Calm - N/A   Clear
6:53 AM 64.0 °F 62.1 °F 93% 30.04 in 10.0 mi Calm Calm - N/A   Clear
7:53 AM 66.0 °F 63.0 °F 90% 30.06 in 10.0 mi Calm Calm - N/A   Clear
8:43 AM 71.6 °F 64.4 °F 78% 30.05 in 2.0 mi Variable 4.6 mph - N/A   Haze
8:53 AM 73.0 °F 64.9 °F 76% 30.07 in 10.0 mi Calm Calm - N/A   Clear
9:53 AM 75.0 °F 63.0 °F 66% 30.07 in 10.0 mi Variable 3.5 mph - N/A   Clear
10:53 AM 75.9 °F 63.0 °F 64% 30.06 in 10.0 mi SE 4.6 mph - N/A   Clear
11:53 AM 77.0 °F 64.0 °F 64% 30.04 in 10.0 mi SSE 9.2 mph - N/A   Clear
12:53 PM 78.1 °F 63.0 °F 60% 30.01 in 10.0 mi SSE 11.5 mph - N/A   Clear
1:53 PM 78.1 °F 64.0 °F 62% 29.99 in 10.0 mi SE 8.1 mph - N/A   Clear
2:53 PM 78.1 °F 64.9 °F 64% 29.98 in 10.0 mi SE 10.4 mph - N/A   Scattered Clouds
3:53 PM 78.1 °F 66.9 °F 68% 29.99 in 10.0 mi SE 6.9 mph - N/A   Scattered Clouds
4:53 PM 75.9 °F 64.0 °F 67% 29.99 in 10.0 mi North 8.1 mph - N/A   Mostly Cloudy
5:53 PM 73.0 °F 63.0 °F 71% 30.01 in 10.0 mi Calm Calm - N/A   Mostly Cloudy
6:53 PM 71.1 °F 62.1 °F 73% 30.04 in 10.0 mi Variable 3.5 mph - N/A   Scattered Clouds
7:53 PM 69.1 °F 62.1 °F 78% 30.06 in 10.0 mi Calm Calm - N/A   Clear
8:53 PM 68.0 °F 62.1 °F 81% 30.07 in 10.0 mi Calm Calm - N/A   Clear
9:53 PM 64.9 °F 62.1 °F 90% 30.08 in 10.0 mi Calm Calm - N/A   Clear
10:53 PM 64.9 °F 61.0 °F 87% 30.09 in 10.0 mi Calm Calm - N/A   Clear
11:53 PM 64.9 °F 61.0 °F 87% 30.08 in 10.0 mi Calm Calm - N/A   Clear